Weather History for Perryton, TX

Change the Weather History Date:

Friday, April 5, 2013

  Actual Average Record
Temperature  
Mean Temperature 56 °F -  
Max Temperature 79 °F 63 °F 89 °F (1967)
Min Temperature 33 °F 32 °F 17 °F (1979)
Degree Days  
Heating Degree Days 9    
Growing Degree Days 6 (Base 50)    
Moisture  
Dew Point 36 °F    
Average Humidity 54    
Maximum Humidity 94    
Minimum Humidity 17    
Precipitation  
Precipitation 0.00 in - - ()
Sea Level Pressure  
Sea Level Pressure 29.97 in    
Wind  
Wind Speed 15 mph (South)    
Max Wind Speed 34 mph    
Max Gust Speed 43 mph    
Visibility 10 miles    
Events      
Averages and records for this station are not official NWS values.
T = Trace of Precipitation, MM = Missing Value Source: NWS Daily Summary

Daily Weather History Graph

Daily Weather History Graph

Search for Another Location

Airport:

Trip Planner

Search our weather history database for the weather conditions in past years. The results will help you decide how hot, cold, wet, or windy it might be!

Date:

Astronomy

Apr. 05, 2013 Rise Set
Actual Time 7:22 AM CDT 8:08 PM CDT
Civil Twilight 6:56 AM CDT 8:34 PM CDT
Nautical Twilight 6:26 AM CDT 9:05 PM CDT
Astronomical Twilight 5:54 AM CDT 9:37 PM CDT
Moon 4:23 AM CDT (4/5) 3:42 PM CDT (4/5)
Length of Visible Light 13h 38m
Length of Day
12h 45m
Waning Crescent, 23% of the Moon is Illuminated
Apr 5
Waning Crescent
Apr 10
New
Apr 18
First Quarter
Apr 25
Full
May 2
Last Quarter

Hourly Weather History & Observations

Time (CDT) Temp. Windchill Dew Point Humidity Pressure Visibility Wind Dir Wind Speed Gust Speed Precip Events Conditions
12:15 AM 39.4 °F 33.8 °F 33.1 °F 78% 30.12 in 10.0 mi SSE 8.1 mph - N/A   Clear
12:35 AM 37.8 °F 33.3 °F 32.9 °F 83% 30.14 in 10.0 mi South 5.8 mph - N/A   Clear
12:55 AM 37.8 °F 33.3 °F 32.4 °F 81% 30.13 in 10.0 mi SE 5.8 mph - N/A   Clear
1:15 AM 36.9 °F 30.7 °F 31.8 °F 82% 30.13 in 10.0 mi SSE 8.1 mph - N/A   Clear
1:35 AM 37.8 °F 31.3 °F 33.4 °F 84% 30.12 in 10.0 mi SE 9.2 mph - N/A   Clear
1:55 AM 37.9 °F 31.5 °F 34.0 °F 86% 30.12 in 10.0 mi SSE 9.2 mph - N/A   Clear
2:15 AM 39.4 °F 34.5 °F 34.2 °F 82% 30.12 in 10.0 mi SSE 6.9 mph - N/A   Clear
2:35 AM 36.1 °F 29.9 °F 32.4 °F 86% 30.13 in 10.0 mi SSW 8.1 mph - N/A   Clear
2:55 AM 35.1 °F 29.3 °F 32.5 °F 91% 30.12 in 10.0 mi SSW 6.9 mph - N/A   Clear
3:15 AM 35.2 °F 29.5 °F 33.3 °F 92% 30.12 in 10.0 mi SSW 6.9 mph - N/A   Clear
3:35 AM 35.2 °F 30.3 °F 32.5 °F 90% 30.12 in 10.0 mi South 5.8 mph - N/A   Clear
3:55 AM 33.3 °F 27.1 °F 31.6 °F 94% 30.11 in 10.0 mi South 6.9 mph - N/A   Clear
4:15 AM 33.4 °F 25.9 °F 32.0 °F 94% 30.10 in 10.0 mi South 9.2 mph - N/A   Clear
4:35 AM 35.1 °F 28.6 °F 33.6 °F 94% 30.11 in 7.0 mi South 8.1 mph - N/A   Clear
4:55 AM 36.3 °F 30.1 °F 34.5 °F 93% 30.11 in 10.0 mi SSW 8.1 mph - N/A   Clear
5:15 AM 36.9 °F 30.7 °F 34.7 °F 92% 30.11 in 10.0 mi South 8.1 mph - N/A   Clear
5:35 AM 35.6 °F 28.6 °F 33.8 °F 93% 30.10 in 7.0 mi SSW 9.2 mph - N/A   Clear
5:55 AM 36.5 °F 30.3 °F 34.3 °F 92% 30.10 in 7.0 mi South 8.1 mph - N/A   Clear
6:15 AM 36.9 °F 30.7 °F 35.1 °F 93% 30.10 in 7.0 mi South 8.1 mph - N/A   Clear
6:35 AM 36.7 °F 31.2 °F 34.7 °F 93% 30.10 in 7.0 mi South 6.9 mph - N/A   Clear
6:55 AM 36.5 °F 30.3 °F 34.7 °F 93% 30.10 in 7.0 mi South 8.1 mph - N/A   Clear
7:15 AM 36.5 °F 31.0 °F 34.7 °F 93% 30.10 in 7.0 mi South 6.9 mph - N/A   Clear
7:35 AM 37.4 °F 31.4 °F 35.6 °F 93% 30.10 in 7.0 mi South 8.1 mph - N/A   Clear
7:55 AM 36.5 °F 31.8 °F 34.9 °F 94% 30.10 in 5.0 mi South 5.8 mph - N/A   Clear
8:15 AM 40.3 °F 34.9 °F 38.1 °F 92% 30.10 in 7.0 mi South 8.1 mph - N/A   Clear
8:35 AM 44.1 °F 39.5 °F 40.3 °F 87% 30.10 in 10.0 mi South 8.1 mph - N/A   Clear
8:55 AM 48.2 °F - 41.0 °F 76% 30.10 in 10.0 mi SSW 13.8 mph - N/A   Clear
9:15 AM 51.4 °F - 40.5 °F 66% 30.10 in 10.0 mi SSW 19.6 mph 25.3 mph N/A   Clear
9:35 AM 54.1 °F - 40.5 °F 60% 30.08 in 10.0 mi South 17.3 mph 24.2 mph N/A   Clear
9:55 AM 57.4 °F - 39.7 °F 52% 30.08 in 10.0 mi SSW 20.7 mph 26.5 mph N/A   Clear
10:15 AM 59.2 °F - 39.0 °F 47% 30.09 in 10.0 mi SSW 18.4 mph - N/A   Clear
10:35 AM 60.8 °F - 37.2 °F 42% 30.09 in 10.0 mi SSW 24.2 mph - N/A   Clear
10:55 AM 61.5 °F - 37.2 °F 41% 30.08 in 10.0 mi SSW 24.2 mph 31.1 mph N/A   Clear
11:15 AM 64.6 °F - 36.9 °F 36% 30.06 in 10.0 mi South 23.0 mph 29.9 mph N/A   Clear
11:35 AM 67.5 °F - 35.1 °F 30% 30.05 in 10.0 mi SSW 25.3 mph - N/A   Clear
11:55 AM 70.2 °F - 31.6 °F 24% 30.04 in 10.0 mi South 23.0 mph 35.7 mph N/A   Clear
12:15 PM 73.2 °F - 32.0 °F 22% 30.03 in 10.0 mi South 24.2 mph 31.1 mph N/A   Clear
12:35 PM 74.3 °F - 30.9 °F 20% 30.02 in 10.0 mi South 25.3 mph 34.5 mph N/A   Clear
12:55 PM 74.8 °F - 30.6 °F 20% 30.00 in 10.0 mi SSW 27.6 mph 36.8 mph N/A   Clear
1:15 PM 75.9 °F - 30.7 °F 19% 29.98 in 10.0 mi South 25.3 mph 36.8 mph N/A   Clear
1:35 PM 77.2 °F - 30.9 °F 18% 29.97 in 10.0 mi SSW 25.3 mph 38.0 mph N/A   Clear
1:55 PM 77.2 °F - 30.0 °F 18% 29.95 in 10.0 mi SSW 29.9 mph 35.7 mph N/A   Clear
2:15 PM 78.1 °F - 30.6 °F 18% 29.94 in 10.0 mi SSW 27.6 mph 38.0 mph N/A   Clear
2:35 PM 79.0 °F - 30.9 °F 17% 29.93 in 10.0 mi South 31.1 mph 40.3 mph N/A   Clear
2:55 PM 79.0 °F - 32.0 °F 18% 29.91 in 10.0 mi SSW 28.8 mph 40.3 mph N/A   Clear
3:15 PM 78.1 °F - 32.7 °F 19% 29.90 in 10.0 mi South 27.6 mph 39.1 mph N/A   Clear
3:35 PM 78.1 °F - 34.7 °F 21% 29.88 in 10.0 mi South 31.1 mph 38.0 mph N/A   Clear
3:55 PM 78.8 °F - 35.4 °F 21% 29.87 in 10.0 mi South 29.9 mph 39.1 mph N/A   Clear
4:15 PM 78.8 °F - 35.6 °F 21% 29.86 in 10.0 mi South 34.5 mph 39.1 mph N/A   Clear
4:35 PM 78.6 °F - 36.0 °F 21% 29.84 in 10.0 mi South 34.5 mph 42.6 mph N/A   Clear
4:55 PM 77.7 °F - 37.4 °F 23% 29.83 in 10.0 mi South 32.2 mph 41.4 mph N/A   Clear
5:15 PM 77.4 °F - 37.2 °F 23% 29.82 in 10.0 mi South 32.2 mph 40.3 mph N/A   Clear
5:35 PM 76.6 °F - 37.4 °F 24% 29.81 in 10.0 mi SSE 32.2 mph 38.0 mph N/A   Clear
5:55 PM 75.7 °F - 35.8 °F 23% 29.80 in 10.0 mi South 31.1 mph 39.1 mph N/A   Clear
6:15 PM 74.8 °F - 36.9 °F 25% 29.79 in 10.0 mi South 31.1 mph 39.1 mph N/A   Clear
6:35 PM 72.9 °F - 38.1 °F 28% 29.79 in 10.0 mi South 31.1 mph 42.6 mph N/A   Clear
6:55 PM 70.7 °F - 38.5 °F 31% 29.78 in 10.0 mi South 25.3 mph 39.1 mph N/A   Clear
7:15 PM 70.3 °F - 39.2 °F 32% 29.78 in 10.0 mi South 31.1 mph 38.0 mph N/A   Clear
7:35 PM 68.5 °F - 39.4 °F 34% 29.78 in 10.0 mi South 31.1 mph 39.1 mph N/A   Clear
7:55 PM 66.4 °F - 39.4 °F 37% 29.77 in 10.0 mi South 28.8 mph 34.5 mph N/A   Clear
8:15 PM 64.6 °F - 39.9 °F 40% 29.77 in 10.0 mi South 27.6 mph 34.5 mph N/A   Clear
8:35 PM 63.0 °F - 40.3 °F 43% 29.77 in 10.0 mi South 21.9 mph 31.1 mph N/A   Clear
8:55 PM 61.9 °F - 39.7 °F 44% 29.77 in 10.0 mi SSE 23.0 mph 28.8 mph N/A   Clear
9:15 PM 60.8 °F - 40.3 °F 47% 29.77 in 10.0 mi SSE 20.7 mph - N/A   Clear
9:35 PM 61.0 °F - 40.3 °F 46% 29.77 in 10.0 mi South 24.2 mph 29.9 mph N/A   Clear
9:55 PM 61.0 °F - 40.5 °F 47% 29.78 in 10.0 mi South 26.5 mph 32.2 mph N/A   Clear
10:15 PM 60.8 °F - 40.1 °F 46% 29.78 in 10.0 mi South 23.0 mph 31.1 mph N/A   Clear
10:35 PM 60.3 °F - 39.6 °F 46% 29.78 in 10.0 mi South 25.3 mph 32.2 mph N/A   Clear
10:55 PM 59.9 °F - 39.9 °F 48% 29.78 in 10.0 mi South 24.2 mph 31.1 mph N/A   Clear
11:15 PM 59.5 °F - 40.1 °F 49% 29.78 in 10.0 mi South 24.2 mph 31.1 mph N/A   Clear
11:35 PM 59.4 °F - 40.1 °F 49% 29.78 in 10.0 mi South 25.3 mph 31.1 mph N/A   Clear
11:55 PM 59.0 °F - 40.5 °F 50% 29.76 in 10.0 mi South 21.9 mph 29.9 mph N/A   Clear